| time (UTC) | temp F | wind direction | speed MPH | gust MPH | rain 1hr in | rain 24hr in | rain mn in | humidity % | barometer mb |
| 20260904233904 | 58 | 172 | 0.0 | 0.0 | 0.08 | 0.35 | 0.31 | 92 | 1012.3 |
| 20260904232902 | 58 | 185 | 0.0 | 0.0 | 0.08 | 0.34 | 0.30 | 92 | 1012.3 |
| 20260904231901 | 58 | 213 | 0.0 | 0.0 | 0.10 | 0.34 | 0.30 | 91 | 1012.2 |
| 20260904230903 | 58 | 238 | 0.0 | 10.0 | 0.10 | 0.33 | 0.29 | 90 | 1012.2 |
| 20260904230344 | 58 | 230 | 0.0 | 0.0 | 0.07 | 0.29 | 0.25 | 91 | 1012.2 |
| 20260904224859 | 58 | 176 | 0.0 | 0.0 | 0.07 | 0.28 | 0.24 | 91 | 1012.2 |
| 20260904223857 | 59 | 211 | 0.0 | 0.0 | 0.07 | 0.27 | 0.23 | 90 | 1012.0 |
| 20260904222856 | 59 | 211 | 0.0 | 0.0 | 0.08 | 0.27 | 0.22 | 90 | 1011.9 |
| 20260904221857 | 59 | 211 | 0.0 | 1.0 | 0.07 | 0.25 | 0.20 | 89 | 1011.9 |
| 20260904220853 | 60 | 234 | 0.0 | 0.0 | 0.07 | 0.25 | 0.18 | 90 | 1011.7 |
| 20260904215856 | 60 | 234 | 0.0 | 0.0 | 0.06 | 0.32 | 0.18 | 89 | 1011.7 |
| 20260904214850 | 60 | 234 | 0.0 | 0.0 | 0.05 | 0.32 | 0.17 | 87 | 1011.7 |
| 20260904213849 | 61 | 234 | 0.0 | 0.0 | 0.04 | 0.31 | 0.15 | 87 | 1011.7 |
| 20260904212849 | 61 | 234 | 0.0 | 0.0 | 0.02 | 0.29 | 0.14 | 84 | 1011.6 |
| 20260904211852 | 62 | 234 | 0.0 | 0.0 | 0.01 | 0.28 | 0.13 | 82 | 1011.5 |
| 20260904210848 | 62 | 234 | 0.0 | 0.0 | 0.00 | 0.27 | 0.12 | 82 | 1011.3 |
| 20260904205850 | 62 | 234 | 0.0 | 0.0 | 0.00 | 0.27 | 0.12 | 81 | 1011.3 |
| 20260904204847 | 62 | 252 | 0.0 | 1.0 | 0.00 | 0.27 | 0.12 | 80 | 1011.2 |
| 20260904203845 | 62 | 144 | 0.0 | 0.0 | 0.00 | 0.27 | 0.12 | 80 | 1011.1 |
| 20260904202842 | 62 | 157 | 0.0 | 0.0 | 0.00 | 0.27 | 0.12 | 81 | 1011.1 |
| 20260904202329 | 62 | 219 | 0.0 | 1.0 | 0.00 | 0.27 | 0.12 | 80 | 1011.0 |
| 20260904200842 | 62 | 234 | 0.0 | 0.0 | 0.00 | 0.27 | 0.12 | 81 | 1011.0 |
| 20260904195844 | 61 | 151 | 0.0 | 0.0 | 0.00 | 0.27 | 0.12 | 85 | 1011.0 |
| 20260904194846 | 60 | 145 | 0.0 | 0.0 | 0.00 | 0.27 | 0.12 | 91 | 1011.1 |
| 20260904193848 | 60 | 157 | 0.0 | 0.0 | 0.00 | 0.27 | 0.12 | 94 | 1011.2 |
| 20260904192837 | 60 | 171 | 0.0 | 1.0 | 0.00 | 0.27 | 0.12 | 94 | 1011.2 |
| 20260904191828 | 60 | 135 | 0.0 | 1.0 | 0.00 | 0.27 | 0.12 | 94 | 1011.3 |
| 20260904190828 | 60 | 221 | 0.0 | 1.0 | 0.00 | 0.27 | 0.12 | 94 | 1011.3 |
| 20260904185834 | 59 | 245 | 0.0 | 2.0 | 0.01 | 0.27 | 0.12 | 94 | 1011.2 |
| 20260904184828 | 59 | 178 | 0.0 | 1.0 | 0.01 | 0.27 | 0.12 | 95 | 1011.2 |
| 20260904184737 | 58 | 170 | 0.0 | 2.0 | 0.01 | 0.27 | 0.12 | 94 | 1011.1 |
| 20260904182827 | 58 | 163 | 0.0 | 2.0 | 0.01 | 0.27 | 0.12 | 91 | 1011.2 |
| 20260904181824 | 58 | 179 | 0.0 | 0.0 | 0.01 | 0.27 | 0.12 | 90 | 1011.1 |
| 20260904180823 | 58 | 150 | 0.0 | 1.0 | 0.01 | 0.27 | 0.12 | 89 | 1011.0 |
| 20260904175821 | 58 | 134 | 0.0 | 2.0 | 0.01 | 0.26 | 0.11 | 88 | 1011.1 |
| 20260904174822 | 57 | 197 | 0.0 | 1.0 | 0.02 | 0.26 | 0.11 | 90 | 1011.0 |
| 20260904173824 | 57 | 183 | 0.0 | 0.0 | 0.02 | 0.26 | 0.11 | 91 | 1010.9 |
| 20260904173303 | 57 | 143 | 0.0 | 1.0 | 0.02 | 0.26 | 0.11 | 91 | 1010.9 |
| 20260904171821 | 57 | 227 | 0.0 | 1.0 | 0.02 | 0.26 | 0.11 | 90 | 1010.9 |
| 20260904170819 | 57 | 157 | 0.0 | 0.0 | 0.02 | 0.26 | 0.11 | 89 | 1010.7 |
| 20260904165818 | 57 | 155 | 0.0 | 1.0 | 0.01 | 0.25 | 0.10 | 88 | 1010.7 |
| 20260904165251 | 57 | 196 | 0.0 | 0.0 | 0.00 | 0.24 | 0.09 | 87 | 1010.7 |
| 20260904164258 | 57 | 144 | 0.0 | 2.0 | 0.00 | 0.24 | 0.09 | 87 | 1010.5 |
| 20260904162818 | 57 | 9 | 0.0 | 1.0 | 0.00 | 0.24 | 0.09 | 89 | 1010.4 |
| 20260904161818 | 56 | 200 | 0.0 | 0.0 | 0.00 | 0.24 | 0.09 | 90 | 1010.3 |
| 20260904160817 | 56 | 350 | 0.0 | 1.0 | 0.00 | 0.24 | 0.09 | 92 | 1010.2 |
| 20260904160311 | 56 | 234 | 0.0 | 0.0 | 0.00 | 0.24 | 0.09 | 93 | 1010.3 |
| 20260904155306 | 55 | 51 | 0.0 | 1.0 | 0.00 | 0.24 | 0.09 | 94 | 1010.3 |
| 20260904153814 | 55 | 186 | 0.0 | 1.0 | 0.00 | 0.24 | 0.09 | 94 | 1010.2 |
| 20260904152816 | 54 | 221 | 0.0 | 1.0 | 0.00 | 0.24 | 0.09 | 94 | 1010.2 |
| 20260904151814 | 54 | 159 | 0.0 | 1.0 | 0.00 | 0.24 | 0.09 | 94 | 1010.1 |
| 20260904150814 | 54 | 198 | 0.0 | 0.0 | 0.00 | 0.24 | 0.09 | 95 | 1010.0 |
| 20260904145812 | 53 | 233 | 0.0 | 0.0 | 0.00 | 0.24 | 0.09 | 95 | 1009.8 |
| 20260904144812 | 53 | 233 | 0.0 | 0.0 | 0.00 | 0.24 | 0.09 | 95 | 1009.7 |
| 20260904143812 | 53 | 234 | 0.0 | 0.0 | 0.00 | 0.24 | 0.09 | 95 | 1009.7 |
| 20260904142812 | 53 | 236 | 0.0 | 0.0 | 0.00 | 0.24 | 0.09 | 95 | 1009.6 |
| 20260904141813 | 53 | 230 | 0.0 | 0.0 | 0.00 | 0.24 | 0.09 | 95 | 1009.5 |
| 20260904141252 | 53 | 230 | 0.0 | 0.0 | 0.00 | 0.24 | 0.09 | 95 | 1009.5 |
| 20260904135813 | 53 | 230 | 0.0 | 0.0 | 0.00 | 0.24 | 0.09 | 95 | 1009.2 |
| 20260904134812 | 53 | 229 | 0.0 | 0.0 | 0.00 | 0.24 | 0.09 | 95 | 1009.2 |
| 20260904133812 | 53 | 218 | 0.0 | 0.0 | 0.00 | 0.24 | 0.09 | 95 | 1009.0 |
| 20260904132812 | 53 | 329 | 0.0 | 0.0 | 0.00 | 0.24 | 0.09 | 95 | 1008.8 |
| 20260904131812 | 53 | 329 | 0.0 | 0.0 | 0.00 | 0.24 | 0.09 | 95 | 1008.9 |
| 20260904130810 | 53 | 22 | 0.0 | 0.0 | 0.00 | 0.24 | 0.09 | 95 | 1008.8 |
| 20260904125810 | 53 | 25 | 0.0 | 0.0 | 0.00 | 0.24 | 0.09 | 95 | 1008.8 |
| 20260904125246 | 53 | 26 | 0.0 | 0.0 | 0.00 | 0.24 | 0.09 | 95 | 1008.8 |
| 20260904123804 | 53 | 271 | 0.0 | 0.0 | 0.00 | 0.24 | 0.09 | 95 | 1008.7 |
| 20260904122808 | 53 | 271 | 0.0 | 0.0 | 0.00 | 0.24 | 0.09 | 95 | 1008.8 |
| 20260904121809 | 53 | 271 | 0.0 | 1.0 | 0.00 | 0.24 | 0.09 | 95 | 1008.6 |
| 20260904120804 | 53 | 215 | 0.0 | 0.0 | 0.00 | 0.25 | 0.09 | 95 | 1008.6 |
| 20260904115804 | 53 | 197 | 0.0 | 0.0 | 0.00 | 0.25 | 0.09 | 95 | 1008.5 |
| 20260904114804 | 53 | 235 | 0.0 | 0.0 | 0.00 | 0.25 | 0.09 | 95 | 1008.5 |
| 20260904114239 | 53 | 240 | 0.0 | 0.0 | 0.00 | 0.25 | 0.09 | 95 | 1008.4 |
| 20260904112802 | 53 | 241 | 0.0 | 0.0 | 0.00 | 0.25 | 0.09 | 95 | 1008.3 |
| 20260904111806 | 53 | 241 | 0.0 | 0.0 | 0.00 | 0.25 | 0.09 | 95 | 1008.3 |
| 20260904110806 | 53 | 241 | 0.0 | 0.0 | 0.00 | 0.25 | 0.09 | 95 | 1008.3 |
| 20260904105802 | 53 | 241 | 0.0 | 0.0 | 0.01 | 0.25 | 0.09 | 95 | 1008.2 |
| 20260904104805 | 53 | 241 | 0.0 | 1.0 | 0.01 | 0.25 | 0.09 | 95 | 1008.3 |
| 20260904103804 | 53 | 257 | 0.0 | 0.0 | 0.01 | 0.25 | 0.09 | 95 | 1008.2 |
| 20260904102803 | 53 | 258 | 0.0 | 0.0 | 0.01 | 0.25 | 0.09 | 94 | 1008.2 |
| 20260904101807 | 53 | 253 | 0.0 | 0.0 | 0.01 | 0.25 | 0.09 | 94 | 1008.1 |
| 20260904100806 | 53 | 267 | 0.0 | 0.0 | 0.01 | 0.25 | 0.08 | 94 | 1008.2 |
| 20260904095800 | 53 | 157 | 0.0 | 1.0 | 0.00 | 0.24 | 0.08 | 94 | 1008.1 |
| 20260904094758 | 53 | 163 | 0.0 | 0.0 | 0.02 | 0.24 | 0.08 | 94 | 1008.2 |
| 20260904094246 | 53 | 331 | 0.0 | 0.0 | 0.02 | 0.24 | 0.08 | 94 | 1008.1 |
| 20260904092802 | 53 | 168 | 0.0 | 2.0 | 0.03 | 0.24 | 0.08 | 94 | 1008.1 |
| 20260904091757 | 53 | 189 | 0.0 | 1.0 | 0.03 | 0.24 | 0.08 | 94 | 1008.1 |
| 20260904090758 | 54 | 239 | 0.0 | 2.0 | 0.03 | 0.24 | 0.08 | 94 | 1008.2 |
| 20260904085758 | 54 | 236 | 0.0 | 1.0 | 0.04 | 0.24 | 0.08 | 94 | 1008.1 |
| 20260904084803 | 54 | 280 | 0.0 | 1.0 | 0.03 | 0.22 | 0.06 | 94 | 1008.3 |
| 20260904083759 | 54 | 210 | 0.0 | 0.0 | 0.05 | 0.22 | 0.06 | 93 | 1008.2 |
| 20260904082758 | 54 | 150 | 0.0 | 0.0 | 0.05 | 0.21 | 0.05 | 93 | 1008.2 |
| 20260904081758 | 54 | 236 | 0.0 | 1.0 | 0.05 | 0.21 | 0.05 | 93 | 1008.2 |
| 20260904080756 | 54 | 228 | 0.0 | 0.0 | 0.05 | 0.21 | 0.05 | 93 | 1008.0 |
| 20260904075758 | 54 | 193 | 0.0 | 0.0 | 0.04 | 0.20 | 0.04 | 93 | 1008.3 |
| 20260904074757 | 54 | 194 | 0.0 | 0.0 | 0.03 | 0.19 | 0.03 | 92 | 1008.6 |
| 20260904073756 | 54 | 194 | 0.0 | 0.0 | 0.01 | 0.17 | 0.01 | 92 | 1008.4 |
| 20260904072754 | 54 | 205 | 0.0 | 0.0 | 0.00 | 0.16 | 0.00 | 92 | 1008.2 |
| 20260904071754 | 54 | 144 | 0.0 | 0.0 | 0.00 | 0.16 | 0.00 | 92 | 1007.9 |
| 20260904071130 | 54 | 172 | 0.0 | 0.0 | 0.00 | 0.16 | 0.00 | 92 | 1007.9 |
| 20260904065759 | 54 | 173 | 0.0 | 1.0 | 0.00 | 0.16 | 0.16 | 93 | 1007.7 |
| 20260904064753 | 54 | 237 | 0.0 | 0.0 | 0.00 | 0.16 | 0.16 | 93 | 1007.6 |
| 20260904063753 | 54 | 230 | 0.0 | 1.0 | 0.00 | 0.16 | 0.16 | 93 | 1007.7 |
| 20260904063254 | 54 | 103 | 0.0 | 1.0 | 0.01 | 0.16 | 0.16 | 93 | 1007.7 |
| 20260904061754 | 54 | 216 | 0.0 | 2.0 | 0.01 | 0.16 | 0.16 | 93 | 1007.7 |
| 20260904060754 | 54 | 15 | 0.0 | 2.0 | 0.02 | 0.16 | 0.16 | 93 | 1007.8 |
| 20260904060732 | 54 | 86 | 0.0 | 0.0 | 0.02 | 0.16 | 0.16 | 92 | 1007.8 |
| 20260904054753 | 54 | 207 | 0.0 | 0.0 | 0.02 | 0.16 | 0.16 | 92 | 1007.9 |
| 20260904053753 | 54 | 150 | 0.0 | 0.0 | 0.02 | 0.16 | 0.16 | 92 | 1008.0 |
| 20260904052754 | 55 | 207 | 0.0 | 0.0 | 0.01 | 0.15 | 0.15 | 91 | 1008.2 |
| 20260904051754 | 55 | 279 | 0.0 | 0.0 | 0.01 | 0.15 | 0.15 | 91 | 1008.3 |
| 20260904050753 | 55 | 17 | 0.0 | 0.0 | 0.00 | 0.14 | 0.14 | 92 | 1008.3 |
| 20260904045755 | 55 | 252 | 0.0 | 0.0 | 0.00 | 0.14 | 0.14 | 92 | 1008.5 |
| 20260904044748 | 55 | 63 | 0.0 | 0.0 | 0.01 | 0.14 | 0.14 | 92 | 1008.4 |
| 20260904043747 | 55 | 63 | 0.0 | 0.0 | 0.01 | 0.14 | 0.14 | 92 | 1008.3 |
| 20260904042747 | 55 | 63 | 0.0 | 0.0 | 0.01 | 0.14 | 0.14 | 92 | 1008.4 |
| 20260904041748 | 55 | 63 | 0.0 | 0.0 | 0.01 | 0.14 | 0.14 | 92 | 1008.3 |
| 20260904040748 | 55 | 63 | 0.0 | 0.0 | 0.01 | 0.14 | 0.14 | 91 | 1008.4 |
| 20260904040229 | 55 | 0 | 0.0 | 0.0 | 0.01 | 0.14 | 0.14 | 91 | 1008.5 |
| 20260904034747 | 55 | 21 | 0.0 | 1.0 | 0.00 | 0.13 | 0.13 | 91 | 1008.4 |
| 20260904034222 | 55 | 270 | 0.0 | 0.0 | 0.00 | 0.13 | 0.13 | 92 | 1008.3 |
| 20260904033747 | 55 | 270 | 0.0 | 0.0 | 0.00 | 0.13 | 0.13 | 92 | 1008.3 |
| 20260904033237 | 55 | 271 | 0.0 | 0.0 | 0.00 | 0.13 | 0.13 | 92 | 1008.3 |
| 20260904031751 | 55 | 270 | 0.0 | 0.0 | 0.00 | 0.13 | 0.13 | 92 | 1008.3 |
| 20260904030746 | 55 | 270 | 0.0 | 0.0 | 0.00 | 0.13 | 0.13 | 91 | 1008.1 |
| 20260904025746 | 55 | 270 | 0.0 | 0.0 | 0.00 | 0.13 | 0.13 | 91 | 1008.1 |
| 20260904024745 | 56 | 271 | 0.0 | 0.0 | 0.00 | 0.13 | 0.13 | 90 | 1008.0 |
| 20260904023746 | 56 | 270 | 0.0 | 0.0 | 0.00 | 0.13 | 0.13 | 90 | 1008.0 |
| 20260904022743 | 56 | 253 | 0.0 | 0.0 | 0.00 | 0.13 | 0.13 | 90 | 1008.0 |
| 20260904021743 | 57 | 251 | 0.0 | 0.0 | 0.00 | 0.14 | 0.13 | 90 | 1008.1 |
| 20260904021230 | 57 | 251 | 0.0 | 0.0 | 0.01 | 0.14 | 0.13 | 90 | 1008.2 |
| 20260904015752 | 57 | 246 | 0.0 | 1.0 | 0.01 | 0.14 | 0.13 | 90 | 1008.3 |
| 20260904014743 | 57 | 223 | 0.0 | 0.0 | 0.01 | 0.14 | 0.13 | 90 | 1008.2 |
| 20260904014234 | 57 | 243 | 0.0 | 1.0 | 0.01 | 0.15 | 0.13 | 90 | 1008.3 |
| 20260904013322 | 57 | 213 | 0.0 | 0.0 | 0.01 | 0.15 | 0.13 | 89 | 1008.3 |
| 20260904012742 | 57 | 213 | 0.0 | 0.0 | 0.01 | 0.15 | 0.13 | 89 | 1008.3 |
| 20260904011745 | 57 | 213 | 0.0 | 0.0 | 0.01 | 0.15 | 0.13 | 88 | 1008.3 |
| 20260904010738 | 58 | 240 | 0.0 | 0.0 | 0.00 | 0.14 | 0.12 | 87 | 1008.3 |
| 20260904005736 | 58 | 290 | 0.0 | 0.0 | 0.00 | 0.15 | 0.12 | 86 | 1008.3 |
| 20260904004738 | 58 | 161 | 0.0 | 0.0 | 0.00 | 0.24 | 0.12 | 86 | 1008.3 |
| 20260904004209 | 58 | 224 | 0.0 | 0.0 | 0.00 | 0.33 | 0.12 | 86 | 1008.3 |
| 20260904002735 | 58 | 150 | 0.0 | 1.0 | 0.00 | 0.36 | 0.12 | 87 | 1008.4 |
| 20260904001741 | 58 | 147 | 0.0 | 1.0 | 0.00 | 0.38 | 0.12 | 86 | 1008.3 |
| 20260904000745 | 58 | 149 | 0.0 | 2.0 | 0.00 | 0.39 | 0.12 | 86 | 1008.4 |
| 20260903235738 | 58 | 166 | 1.0 | 6.0 | 0.00 | 0.41 | 0.12 | 86 | 1008.3 |
| 20260903234735 | 57 | 143 | 0.0 | 2.0 | 0.00 | 0.41 | 0.12 | 87 | 1008.3 |